TimeIST,TemperatureF,Dew PointF,Humidity,Sea Level PressureIn,VisibilityMPH,Wind Direction,Wind SpeedMPH,Gust SpeedMPH,PrecipitationIn,Events,Conditions,WindDirDegrees,DateUTC
12:10 AM,71.6,59.0,64,29.89,2.5,Calm,Calm,-,N/A,,Haze,0,2012-11-14 18:40:00
12:40 AM,69.8,57.2,64,29.86,2.5,Calm,Calm,-,N/A,,Haze,0,2012-11-14 19:10:00
1:10 AM,69.8,57.2,64,29.86,2.5,Calm,Calm,-,N/A,,Haze,0,2012-11-14 19:40:00
1:40 AM,68.0,55.4,64,29.86,2.5,Calm,Calm,-,N/A,,Haze,0,2012-11-14 20:10:00
2:10 AM,68.0,55.4,64,29.86,2.5,Calm,Calm,-,N/A,,Haze,0,2012-11-14 20:40:00
2:30 AM,68,59,66,29.88,2,NNW,2.3,,,,Scattered Clouds,340,2012-11-14 21:00:00
2:40 AM,68.0,55.4,64,29.86,2.5,Calm,Calm,-,N/A,,Haze,0,2012-11-14 21:10:00
3:10 AM,68.0,55.4,64,29.86,2.5,Calm,Calm,-,N/A,,Haze,0,2012-11-14 21:40:00
3:40 AM,68.0,55.4,64,29.86,2.5,ENE,3.5,-,N/A,,Haze,60,2012-11-14 22:10:00
4:10 AM,68.0,55.4,64,29.86,2.5,NE,3.5,-,N/A,,Haze,40,2012-11-14 22:40:00
4:40 AM,66.2,53.6,64,29.86,2.5,NNE,3.5,-,N/A,,Haze,30,2012-11-14 23:10:00
5:10 AM,68.0,53.6,60,29.86,2.5,North,3.5,-,N/A,,Haze,10,2012-11-14 23:40:00
5:30 AM,67,56,59,29.89,2,Calm,Calm,,,,,,2012-11-15 00:00:00
5:40 AM,62.6,50.0,63,29.86,2.5,NE,3.5,-,N/A,,Haze,40,2012-11-15 00:10:00
6:10 AM,64.4,50.0,59,29.89,2.2,NE,3.5,-,N/A,,Haze,50,2012-11-15 00:40:00
7:10 AM,64.4,50.0,59,29.92,1.9,Calm,Calm,-,N/A,,Haze,0,2012-11-15 01:40:00
7:40 AM,66.2,51.8,60,29.92,1.9,NE,5.8,-,N/A,,Haze,50,2012-11-15 02:10:00
8:10 AM,68.0,53.6,60,29.95,1.9,ENE,6.9,-,N/A,,Haze,60,2012-11-15 02:40:00
8:30 AM,71,53,42,29.96,2,NE,2.3,,,,,50,2012-11-15 03:00:00
8:40 AM,71.6,55.4,57,29.95,1.9,NE,5.8,-,N/A,,Haze,50,2012-11-15 03:10:00
9:10 AM,73.4,57.2,57,29.98,1.9,NE,9.2,-,N/A,,Haze,40,2012-11-15 03:40:00
10:40 AM,82.4,66.2,58,29.98,3.1,East,8.1,-,N/A,,Smoke,90,2012-11-15 05:10:00
11:10 AM,86.0,68.0,55,29.95,3.7,East,6.9,-,N/A,,Unknown,90,2012-11-15 05:40:00
11:30 AM,84,54,25,29.99,2,East,3.5,,,,,90,2012-11-15 06:00:00
11:40 AM,87.8,69.8,55,29.95,3.7,East,5.8,-,N/A,,Unknown,80,2012-11-15 06:10:00
12:10 PM,89.6,71.6,55,29.95,3.7,East,8.1,-,N/A,,Unknown,90,2012-11-15 06:40:00
12:40 PM,91.4,71.6,52,29.92,3.7,East,6.9,-,N/A,,Unknown,100,2012-11-15 07:10:00
1:10 PM,91.4,73.4,55,29.92,3.7,East,6.9,-,N/A,,Unknown,100,2012-11-15 07:40:00
1:40 PM,91.4,73.4,55,29.89,3.7,ENE,4.6,-,N/A,,Unknown,60,2012-11-15 08:10:00
2:10 PM,93.2,71.6,49,29.86,3.7,East,6.9,-,N/A,,Unknown,90,2012-11-15 08:40:00
2:30 PM,90,53,19,29.90,2,North,3.5,,,,,0,2012-11-15 09:00:00
2:40 PM,95.0,73.4,49,29.86,3.7,ESE,5.8,-,N/A,,Unknown,110,2012-11-15 09:10:00
3:10 PM,93.2,73.4,52,29.86,3.7,East,3.5,-,N/A,,Unknown,80,2012-11-15 09:40:00
3:40 PM,91.4,71.6,52,29.86,3.7,ENE,3.5,-,N/A,,Unknown,70,2012-11-15 10:10:00
4:10 PM,91.4,73.4,55,29.83,3.7,NE,3.5,-,N/A,,Unknown,50,2012-11-15 10:40:00
5:10 PM,89.6,71.6,55,29.86,3.7,ENE,4.6,-,N/A,,Unknown,60,2012-11-15 11:40:00
5:30 PM,87,62,32,29.89,2,NNE,3.5,,,,,20,2012-11-15 12:00:00
6:40 PM,80.6,64.4,58,29.89,2.5,ENE,3.5,-,N/A,,Haze,60,2012-11-15 13:10:00
7:10 PM,78.8,64.4,61,29.89,2.5,NNE,3.5,-,N/A,,Haze,20,2012-11-15 13:40:00
7:40 PM,75.2,62.6,65,29.92,2.5,Calm,Calm,-,N/A,,Haze,0,2012-11-15 14:10:00
8:10 PM,75.2,60.8,61,29.92,2.5,Variable,3.5,-,N/A,,Haze,0,2012-11-15 14:40:00
8:30 PM,74,59,49,29.94,2,NE,2.3,,,,Smoke,50,2012-11-15 15:00:00
8:40 PM,75.2,60.8,61,29.92,2.5,Variable,3.5,-,N/A,,Haze,0,2012-11-15 15:10:00
9:10 PM,77.0,60.8,57,29.92,2.5,Variable,3.5,-,N/A,,Haze,0,2012-11-15 15:40:00
9:40 PM,75.2,59.0,57,29.92,2.5,Calm,Calm,-,N/A,,Haze,0,2012-11-15 16:10:00
10:10 PM,73.4,59.0,61,29.95,2.5,Calm,Calm,-,N/A,,Haze,0,2012-11-15 16:40:00
10:40 PM,69.8,57.2,64,29.95,2.5,Calm,Calm,-,N/A,,Haze,0,2012-11-15 17:10:00
11:10 PM,69.8,53.6,56,29.95,2.5,Calm,Calm,-,N/A,,Haze,0,2012-11-15 17:40:00
11:30 PM,68,58,61,29.96,2,Calm,Calm,,,,Haze,,2012-11-15 18:00:00
11:40 PM,68.0,53.6,60,29.95,2.5,Calm,Calm,-,N/A,,Haze,0,2012-11-15 18:10:00